CST,Max TemperatureF,Mean TemperatureF,Min TemperatureF,Max Dew PointF,MeanDew PointF,Min DewpointF,Max Humidity, Mean Humidity, Min Humidity, Max Sea Level PressureIn, Mean Sea Level PressureIn, Min Sea Level PressureIn, Max VisibilityMiles, Mean VisibilityMiles, Min VisibilityMiles, Max Wind SpeedMPH, Mean Wind SpeedMPH, Max Gust SpeedMPH,PrecipitationIn, CloudCover, Events, WindDirDegrees
2010-10-1,78,72,66,73,70,66,100,97,78,30.06,30.01,29.95,6,6,1,13,4,,0.00,5,Fog-Rain-Thunderstorm,250
2010-10-2,80,72,64,73,68,64,100,93,69,30.06,30.00,29.91,6,5,2,15,4,,0.00,6,Fog-Rain-Thunderstorm,244
2010-10-3,80,71,62,73,67,63,100,96,69,30.09,30.02,29.96,6,5,1,9,4,,0.00,6,Fog-Rain-Thunderstorm,175
2010-10-4,78,70,62,73,65,61,100,83,57,30.08,30.03,29.97,6,6,6,10,7,,0.00,6,Fog-Rain,125
2010-10-5,80,73,66,72,67,63,100,86,58,30.07,30.02,29.96,6,6,6,12,4,,0.00,6,Fog-Rain,153
2010-10-6,80,73,66,72,68,63,100,86,58,30.07,30.02,29.95,6,6,3,13,4,,0.00,6,Fog-Rain-Thunderstorm,179
2010-10-7,82,73,64,72,65,63,100,78,51,30.07,30.02,29.95,6,6,6,12,5,,0.00,5,,111
2010-10-8,80,72,64,73,66,63,94,79,61,30.09,30.03,29.97,6,6,6,13,7,,0.00,4,Rain,112
2010-10-9,82,74,66,66,64,61,88,73,54,30.09,30.03,29.96,6,6,6,12,8,23,0.00,4,,115
2010-10-10,82,74,66,73,65,57,100,77,48,30.05,29.99,29.91,6,6,6,13,7,,0.00,6,Fog,124
2010-10-11,82,75,68,73,68,63,100,86,51,30.03,29.97,29.91,6,6,1,14,5,,0.00,5,Fog-Rain-Thunderstorm,152
2010-10-12,82,76,69,75,70,66,100,86,61,30.03,29.97,29.91,6,5,1,13,6,,0.00,5,Rain-Thunderstorm,147
2010-10-13,78,73,68,75,70,66,100,91,74,30.04,29.98,29.92,6,6,5,10,5,,0.00,5,Rain,213
2010-10-14,80,74,69,70,65,63,100,75,58,30.04,29.99,29.93,6,6,6,17,9,33,0.00,6,,106
2010-10-15,80,74,68,72,66,63,94,78,58,30.07,30.00,29.95,6,6,6,14,8,23,0.00,6,Fog-Rain-Thunderstorm,122
2010-10-16,77,72,66,72,67,61,100,89,65,30.11,30.04,29.99,6,6,3,10,4,,0.00,6,Fog-Rain,200
2010-10-17,77,72,66,72,66,61,100,89,61,30.10,30.05,29.99,6,6,5,10,4,,0.00,5,Fog-Rain,157
2010-10-18,77,72,66,72,69,66,100,95,74,30.09,30.04,29.97,6,6,6,12,3,,0.00,5,Rain,265
2010-10-19,77,72,66,72,69,66,100,95,83,30.10,30.04,29.98,6,6,1,9,3,,0.00,4,Fog-Rain,266
2010-10-20,80,73,66,72,68,66,100,88,65,30.11,30.04,29.96,6,6,5,13,4,,0.00,4,Fog-Rain,231
2010-10-21,78,72,66,73,69,66,100,95,74,30.08,30.02,29.94,6,5,0,12,4,,0.00,5,Fog-Rain-Thunderstorm,217
2010-10-22,78,72,66,70,66,61,100,87,57,30.09,30.02,29.95,6,6,4,15,3,,0.00,6,Fog-Rain,156
2010-10-23,77,68,60,72,67,61,100,93,69,30.08,30.03,29.98,6,6,3,12,4,,0.00,6,Rain,212
2010-10-24,78,72,66,73,68,66,100,96,73,30.05,30.00,29.94,6,5,0,12,3,,0.00,6,Fog-Rain-Thunderstorm,194
2010-10-25,78,71,64,72,68,64,100,94,69,30.02,29.98,29.91,6,6,3,13,3,,0.00,5,Fog-Rain-Thunderstorm,247
2010-10-26,78,71,64,72,68,64,100,93,69,30.03,29.98,29.91,6,5,1,15,4,,0.00,4,Fog-Rain,163
2010-10-27,78,73,68,73,70,66,100,93,73,30.07,30.03,29.97,6,5,0,12,5,,0.00,5,Fog,250
2010-10-28,82,74,66,73,67,63,100,83,54,30.05,30.00,29.94,6,6,6,12,4,,0.00,4,Fog,126
2010-10-29,80,71,62,72,67,61,100,85,57,30.05,29.99,29.92,6,6,1,9,6,23,0.00,5,Fog-Rain-Thunderstorm,88
2010-10-30,80,72,64,72,68,63,100,89,61,30.03,29.98,29.90,6,6,3,13,6,,0.00,5,Fog-Rain,118
2010-10-31,78,71,64,72,68,64,100,89,65,30.09,30.02,29.95,6,5,2,8,5,,0.00,5,Fog-Rain,191